Temp
1 1 1 1 1 1 0 0 -0 -0 -0 -0 0 0 0 1 1 1 1 1 1 1 1 1 1 1 1 1 1 1 1 1 1 1 1 1 2 2 2 2 2 2
1 1 1 1 1 1 0 0 -0 -0 -0 -0 -0 0 0 0 0 1 1 1 0 0 0 0 0 1 1 1 1 1 1 1 1 1 1 1 1 2 2 2 2 2
1 1 1 1 0 0 0 0 0 -0 -0 -0 -0 -0 -0 -0 0 0 0 0 0 0 0 0 0 0 0 1 1 1 1 1 1 1 1 1 1 2 2 2 2 2
1 1 1 0 0 0 0 0 0 0 -0 -0 -0 -0 -0 -0 -0 -0 0 0 0 0 -0 0 0 0 0 1 1 1 1 1 1 1 1 1 2 2 2 2 2 2
1 1 0 0 0 0 0 0 0 0 0 -0 -0 -0 -0 -0 -0 -0 -0 -0 -0 -0 -0 -0 -0 0 0 0 1 1 1 1 1 1 1 1 1 2 2 2 2 2
1 1 1 1 0 0 0 0 -0 -0 0 -0 -0 -0 -0 -0 -0 -0 -0 -0 -0 -0 -0 -0 -0 -0 -0 0 0 1 1 1 1 1 1 1 1 1 1 1 2 2
1 1 1 1 0 0 0 0 -0 -0 -0 -0 -0 -0 -0 -0 -0 -1 -1 -0 -0 -0 -0 -0 -0 -0 -0 0 0 0 0 1 1 1 1 1 1 1 1 1 1 1
1 1 1 1 1 1 1 0 0 -0 -0 -0 -0 -0 -0 -0 -1 -1 -1 -1 -1 -0 -0 -0 -0 -0 -0 0 0 0 0 0 0 0 1 1 1 1 1 1 1 1
1 1 1 1 1 1 1 0 0 0 -0 -0 -0 -0 -1 -1 -1 -1 -1 -1 -1 -1 -1 -1 -1 -0 -0 0 0 0 0 0 0 0 0 0 0 1 1 1 1 1
1 1 1 1 1 1 0 0 0 -0 -0 -0 -0 -0 -1 -1 -1 -1 -1 -1 -1 -1 -1 -1 -1 -1 -1 -0 0 0 0 0 0 0 0 0 0 1 1 1 1 1
1 1 1 1 1 1 0 0 0 -0 -0 -0 -0 -1 -1 -1 -1 -1 -1 -1 -1 -1 -1 -1 -1 -1 -1 -1 -0 0 -0 -0 0 0 0 0 0 1 1 1 1 1
1 1 1 1 1 1 1 1 0 0 -0 -0 -0 -0 -1 -1 -1 -1 -1 -1 -1 -1 -1 -1 -1 -1 -1 -1 -0 -0 -0 -0 -0 0 0 0 0 0 0 1 1 1
1 1 1 1 1 1 1 1 1 1 0 0 0 0 -0 -0 -1 -1 -1 -1 -1 -1 -1 -1 -1 -1 -1 -1 -1 -1 -1 -1 -0 0 0 -0 -0 0 0 0 1 1
1 1 1 1 1 1 1 1 1 1 1 1 0 0 0 -0 -1 -1 -1 -1 -1 -1 -1 -1 -1 -1 -1 -1 -1 -1 -1 -1 -1 -0 -0 -0 -0 0 0 0 0 0
2 1 1 1 1 1 1 1 1 1 1 1 1 0 0 -0 -0 -1 -1 -1 -1 -1 -1 -1 -1 -1 -1 -1 -1 -1 -1 -1 -1 -1 -1 -0 -0 0 0 0 0 0
2 2 1 1 1 1 1 1 1 1 1 1 0 0 0 0 0 -0 -0 -0 -0 -0 -0 -1 -1 -1 -1 -1 -1 -1 -1 -1 -1 -1 -1 -1 -0 -0 0 0 0 0
1 1 1 1 1 1 1 1 1 1 0 0 0 0 -0 0 0 -0 -0 -0 -0 -0 -0 -0 -1 -1 -1 -1 -1 -1 -1 -1 -2 -2 -1 -1 -1 -0 -0 -0 0 0
0 0 0 1 1 1 1 1 1 1 0 0 0 0 -0 -0 -0 -0 -0 -0 -0 -0 -0 -0 -0 -1 -1 -1 -1 -1 -1 -1 -2 -2 -2 -1 -1 -1 -0 -0 0 0
-1 -0 -0 -0 -0 -0 0 0 0 0 0 0 0 -0 -0 -0 -0 -0 -0 -0 -0 -1 -1 -0 -1 -1 -2 -1 -1 -1 -1 -1 -2 -2 -2 -1 -1 -1 -1 -0 -0 0
-1 -1 -1 -1 -1 -1 -1 -0 -0 -0 -0 -0 -0 -0 -0 -0 -0 -0 -0 -0 -0 -1 -1 -1 -1 -2 -2 -2 -1 -1 -1 -2 -2 -2 -2 -2 -1 -1 -1 -1 -1 -0
-1 -1 -1 -1 -1 -1 -1 -1 -1 -1 -1 -1 -1 -1 -1 -1 -1 -1 -1 -1 -1 -1 -2 -2 -2 -3 -3 -3 -2 -2 -2 -2 -2 -2 -2 -2 -2 -2 -2 -1 -1 -1
-1 -1 -1 -1 -1 -1 -1 -1 -1 -1 -1 -1 -1 -1 -1 -1 -1 -1 -1 -1 -2 -2 -3 -3 -3 -3 -3 -3 -3 -3 -3 -3 -2 -3 -3 -3 -2 -2 -2 -2 -1 -1
-1 -1 -1 -1 -1 -1 -1 -1 -1 -1 -1 -1 -1 -1 -2 -2 -1 -2 -2 -2 -2 -3 -3 -3 -3 -3 -4 -3 -3 -3 -3 -3 -3 -3 -3 -3 -3 -3 -2 -2 -2 -2
-1 -1 -1 -1 -1 -1 -1 -1 -1 -1 -1 -1 -2 -2 -2 -2 -2 -2 -2 -2 -2 -3 -3 -3 -4 -4 -4 -4 -4 -3 -3 -3 -3 -3 -3 -3 -3 -3 -2 -2 -2 -2
-1 -1 -1 -1 -1 -1 -2 -2 -2 -2 -2 -2 -2 -2 -2 -2 -2 -2 -3 -3 -3 -3 -4 -4 -4 -4 -4 -4 -4 -4 -3 -3 -3 -3 -3 -3 -3 -2 -2 -2 -2 -2
-2 -2 -2 -2 -2 -2 -2 -2 -2 -2 -2 -2 -2 -2 -3 -3 -3 -3 -3 -4 -4 -4 -4 -4 -4 -4 -5 -5 -4 -4 -4 -4 -3 -3 -3 -3 -3 -2 -2 -2 -2 -2
Height
3118 3119 3119 3119 3119 3119 3119 3119 3119 3119 3119 3119 3119 3118 3118 3118 3118 3118 3118 3118 3118 3118 3118 3118 3118 3118 3118 3118 3118 3118 3119 3119 3119 3119 3119 3120 3120 3120 3119 3119 3119 3119
3117 3117 3118 3118 3118 3118 3118 3118 3118 3118 3118 3118 3118 3118 3118 3117 3117 3117 3117 3117 3117 3117 3117 3117 3117 3117 3117 3117 3117 3117 3117 3117 3117 3118 3118 3118 3118 3118 3118 3118 3118 3117
3116 3116 3116 3117 3117 3117 3117 3117 3117 3117 3117 3117 3117 3117 3117 3117 3116 3116 3116 3116 3116 3116 3116 3116 3116 3116 3116 3116 3116 3116 3116 3116 3116 3116 3116 3116 3116 3116 3116 3116 3116 3116
3114 3114 3115 3115 3115 3116 3115 3115 3116 3116 3115 3116 3115 3116 3116 3116 3115 3115 3115 3115 3115 3115 3115 3115 3114 3114 3114 3114 3114 3114 3115 3115 3115 3115 3114 3114 3114 3114 3114 3114 3114 3114
3112 3112 3113 3113 3113 3114 3114 3114 3114 3114 3114 3114 3114 3114 3114 3115 3114 3114 3114 3113 3113 3113 3113 3113 3113 3113 3113 3113 3113 3113 3113 3113 3113 3113 3113 3113 3113 3113 3113 3112 3112 3112
3110 3110 3111 3111 3111 3111 3111 3112 3112 3112 3112 3112 3112 3112 3112 3113 3113 3113 3112 3112 3112 3112 3112 3112 3112 3112 3111 3111 3111 3111 3111 3112 3112 3112 3112 3112 3111 3111 3111 3111 3110 3110
3108 3108 3108 3108 3108 3108 3109 3109 3110 3110 3110 3110 3110 3110 3110 3111 3111 3111 3111 3110 3110 3110 3110 3110 3110 3110 3110 3109 3109 3109 3109 3110 3110 3110 3110 3110 3110 3109 3109 3108 3108 3108
3105 3105 3105 3106 3106 3106 3106 3107 3107 3108 3108 3108 3108 3108 3108 3108 3108 3108 3108 3108 3108 3108 3108 3108 3108 3108 3108 3107 3107 3107 3107 3107 3107 3107 3107 3107 3107 3107 3107 3106 3106 3105
3101 3102 3102 3103 3103 3103 3103 3104 3104 3105 3105 3105 3105 3105 3105 3105 3105 3106 3106 3106 3106 3106 3106 3106 3106 3106 3105 3105 3105 3105 3105 3105 3105 3105 3105 3105 3104 3104 3104 3104 3103 3103
3097 3098 3098 3099 3099 3100 3100 3101 3101 3101 3102 3102 3102 3102 3102 3102 3102 3102 3103 3103 3103 3104 3104 3104 3104 3103 3103 3103 3103 3103 3103 3103 3103 3102 3102 3102 3102 3101 3101 3101 3101 3100
3094 3094 3094 3095 3096 3096 3097 3097 3097 3097 3098 3098 3098 3098 3098 3098 3099 3099 3100 3101 3101 3101 3101 3101 3101 3101 3100 3100 3100 3100 3100 3100 3100 3099 3099 3099 3099 3098 3098 3098 3097 3097
3091 3090 3090 3090 3091 3092 3093 3093 3093 3093 3093 3093 3092 3093 3093 3094 3095 3096 3097 3098 3098 3098 3098 3098 3098 3097 3097 3097 3097 3098 3097 3097 3096 3096 3096 3095 3095 3095 3094 3094 3094 3093
3086 3085 3085 3086 3087 3088 3088 3089 3089 3089 3089 3088 3088 3090 3091 3091 3092 3093 3094 3094 3094 3094 3094 3094 3094 3094 3094 3094 3094 3094 3094 3093 3093 3092 3092 3091 3091 3090 3090 3090 3089 3089
3082 3081 3081 3083 3085 3085 3085 3085 3085 3086 3085 3084 3085 3087 3088 3088 3088 3089 3089 3089 3090 3090 3090 3091 3090 3091 3091 3090 3091 3091 3090 3090 3089 3088 3088 3087 3086 3086 3085 3085 3085 3084
3078 3078 3078 3079 3080 3081 3081 3082 3082 3082 3081 3081 3081 3082 3083 3083 3084 3085 3084 3085 3085 3086 3086 3087 3087 3087 3087 3086 3086 3086 3086 3085 3085 3084 3083 3082 3082 3081 3081 3080 3080 3079
3074 3074 3074 3075 3076 3076 3077 3077 3078 3078 3078 3077 3077 3077 3078 3079 3080 3080 3080 3081 3081 3081 3082 3082 3083 3083 3082 3082 3082 3082 3081 3080 3080 3079 3078 3077 3077 3077 3077 3076 3075 3075
3068 3069 3069 3070 3071 3071 3072 3072 3073 3073 3073 3073 3073 3073 3074 3075 3076 3076 3076 3076 3077 3077 3077 3077 3078 3077 3077 3077 3077 3077 3076 3076 3075 3074 3073 3073 3072 3072 3072 3071 3071 3070
3063 3063 3064 3065 3065 3066 3066 3067 3067 3068 3068 3069 3069 3069 3069 3070 3071 3071 3071 3071 3072 3072 3072 3073 3072 3072 3072 3072 3072 3072 3072 3071 3070 3069 3068 3068 3068 3067 3067 3066 3066 3065
3057 3058 3059 3060 3060 3061 3061 3062 3062 3063 3063 3063 3064 3064 3064 3065 3065 3066 3066 3066 3067 3067 3067 3067 3067 3066 3067 3068 3068 3067 3067 3066 3065 3064 3063 3063 3062 3062 3061 3061 3060 3059
3052 3052 3053 3054 3055 3055 3056 3057 3057 3058 3058 3058 3059 3059 3059 3060 3060 3061 3061 3061 3061 3061 3061 3061 3061 3061 3062 3063 3063 3062 3061 3061 3060 3059 3058 3058 3057 3057 3056 3055 3054 3053
3047 3047 3048 3048 3049 3050 3050 3051 3052 3053 3053 3053 3053 3054 3055 3055 3055 3056 3056 3056 3056 3056 3056 3055 3055 3056 3057 3058 3058 3057 3056 3055 3055 3054 3054 3053 3052 3051 3050 3049 3048 3047
3042 3042 3042 3043 3044 3044 3045 3046 3046 3047 3047 3047 3048 3049 3049 3050 3051 3051 3051 3051 3051 3051 3051 3051 3051 3051 3052 3053 3053 3052 3051 3050 3050 3049 3048 3047 3046 3045 3044 3043 3042 3040
3037 3037 3037 3038 3038 3039 3040 3040 3041 3041 3042 3042 3043 3044 3045 3045 3046 3046 3046 3046 3046 3046 3047 3047 3047 3047 3048 3048 3048 3047 3047 3046 3045 3044 3043 3041 3040 3039 3038 3036 3035 3034
3031 3031 3032 3032 3033 3034 3034 3035 3035 3036 3037 3037 3038 3039 3039 3040 3040 3040 3040 3041 3042 3042 3043 3043 3043 3042 3043 3042 3043 3042 3042 3041 3040 3039 3037 3036 3034 3033 3031 3030 3028 3027
3025 3025 3026 3026 3027 3028 3029 3029 3030 3030 3031 3032 3033 3034 3034 3034 3035 3035 3035 3036 3037 3037 3038 3038 3038 3038 3038 3038 3038 3038 3037 3037 3035 3034 3032 3030 3029 3027 3025 3023 3022 3020
3019 3019 3019 3020 3021 3022 3023 3024 3024 3025 3026 3027 3028 3028 3028 3028 3027 3028 3029 3030 3031 3032 3033 3033 3034 3034 3035 3035 3035 3034 3033 3032 3030 3028 3026 3024 3023 3021 3019 3017 3015 3014
Wind_Speed
10 9 9 10 10 10 10 9 9 10 11 11 11 11 11 11 11 11 11 11 10 10 10 10 10 11 11 12 12 13 13 13 13 13 13 13 13 13 14 14 15 16
12 11 11 11 12 12 11 10 10 11 12 12 12 12 12 12 11 11 11 11 11 11 11 11 11 12 12 13 13 14 14 14 14 14 14 14 13 13 13 14 14 15
13 13 13 12 13 13 13 13 12 13 13 13 14 14 13 13 13 12 12 11 11 11 11 12 12 12 12 13 13 14 14 14 15 15 14 14 14 14 14 14 14 14
12 14 15 15 14 15 16 16 15 15 15 15 15 15 15 15 15 15 14 14 13 12 12 12 12 12 12 13 13 14 14 14 14 15 15 15 15 15 15 15 15 15
13 14 15 16 17 17 18 18 18 17 17 17 18 18 17 17 17 17 17 17 16 15 14 13 13 13 13 13 14 14 14 14 14 14 14 15 15 15 15 16 16 16
15 15 15 16 18 19 20 20 20 20 20 20 20 20 20 19 19 19 19 20 19 18 17 16 16 15 15 15 15 15 15 15 15 15 15 15 16 16 16 16 17 17
17 17 17 17 19 20 22 22 23 23 23 23 23 23 23 22 21 21 21 21 21 20 20 19 19 18 17 18 17 17 16 16 17 17 17 17 17 17 18 18 18 19
19 19 19 19 19 20 22 23 24 25 25 26 26 26 26 25 24 23 23 23 23 22 21 21 21 20 20 19 19 19 19 19 18 18 18 18 19 19 19 20 20 20
22 22 21 21 21 22 21 22 24 25 27 28 28 28 29 28 27 26 25 25 24 24 23 23 23 22 22 22 21 20 20 20 20 20 20 20 20 20 20 21 21 21
27 25 24 23 23 23 23 22 23 25 27 29 30 31 31 31 30 28 27 27 26 26 25 25 25 25 25 24 23 22 21 20 21 21 21 21 22 22 22 22 23 23
30 29 28 27 25 25 25 25 25 25 26 29 31 33 33 33 32 31 29 28 28 28 27 27 27 26 27 27 26 24 23 23 23 23 23 23 23 23 24 24 25 25
34 33 32 31 29 28 27 28 28 27 28 30 33 34 34 34 33 32 31 30 30 30 30 30 29 29 29 29 28 27 26 26 26 26 25 25 25 25 25 26 26 27
36 36 35 33 31 30 30 30 30 30 31 33 34 33 32 32 33 33 32 31 32 32 32 32 32 31 31 31 30 29 28 29 29 29 28 28 28 28 28 28 28 28
34 35 34 32 32 33 33 32 33 33 34 35 36 33 32 31 31 33 34 34 34 34 34 34 34 33 33 33 32 31 31 31 31 30 30 31 31 31 30 30 30 30
35 35 34 33 33 35 36 36 36 36 37 38 38 36 36 34 31 31 34 36 37 37 37 37 35 35 35 36 35 34 34 34 34 32 32 32 33 34 33 33 33 33
39 39 38 37 36 37 38 39 39 40 40 40 41 40 39 39 37 35 35 35 37 39 40 40 39 39 39 38 37 36 36 37 36 35 35 35 36 36 36 35 35 35
40 41 41 41 40 40 41 41 42 42 43 43 44 43 41 40 39 39 38 36 36 37 39 41 43 44 43 41 39 38 38 39 39 38 38 39 39 39 39 38 38 38
40 40 41 41 41 41 42 43 43 43 44 44 45 44 42 40 40 40 40 40 39 38 39 40 44 46 45 42 41 40 40 40 41 41 41 42 42 42 42 42 42 41
38 39 39 39 40 40 41 42 43 43 43 43 44 44 43 42 42 42 43 43 43 42 41 41 45 47 46 43 42 42 42 42 43 44 44 44 45 45 45 45 45 45
36 37 37 37 38 39 40 41 42 42 42 42 43 43 43 43 42 43 44 45 46 44 42 42 45 47 46 45 44 44 44 43 44 45 45 46 47 48 48 47 47 47
37 37 37 37 37 37 38 39 40 41 42 43 43 43 43 43 43 42 43 44 44 42 41 42 45 46 46 45 45 44 44 43 44 45 47 48 49 49 49 49 49 50
37 38 38 38 38 38 38 38 39 39 40 41 42 42 41 41 41 41 40 39 37 36 38 42 44 43 42 43 44 44 44 44 45 46 48 49 49 50 50 50 51 52
37 38 38 38 38 38 38 38 39 40 40 40 40 39 37 38 38 37 35 35 34 34 36 39 40 39 39 41 43 43 44 44 45 47 48 49 50 50 51 51 52 52
37 38 39 39 39 38 37 37 37 37 38 38 37 36 35 35 35 35 34 35 35 35 35 37 38 39 39 40 41 42 43 44 46 48 49 50 50 51 51 52 52 51
39 39 39 39 39 39 38 37 36 35 34 34 33 32 32 32 33 35 36 36 35 35 36 38 39 39 39 39 40 41 43 45 47 49 50 50 51 51 51 51 50 50
39 39 38 38 39 38 37 36 35 33 32 31 30 29 31 35 39 40 39 38 37 36 37 37 37 36 36 37 38 41 43 45 47 48 49 49 50 50 50 50 50 49
Wind_Direction
258 266 268 269 275 282 291 296 299 307 318 326 330 334 335 334 335 335 334 334 332 328 322 317 313 308 305 303 301 300 299 297 294 292 290 287 283 280 279 279 279 280
251 255 258 262 266 273 279 281 283 293 304 315 322 328 330 331 332 332 333 333 332 329 325 321 316 311 308 305 304 302 300 299 298 296 295 294 292 288 286 284 282 283
250 250 252 256 260 262 265 267 271 279 289 301 309 315 322 325 325 325 326 327 327 325 321 317 313 310 307 305 303 301 300 300 300 300 299 299 297 296 294 291 289 287
251 252 251 250 252 255 258 262 268 274 279 286 292 300 309 315 317 317 317 317 318 318 315 311 307 304 302 301 299 298 299 300 301 300 300 300 299 299 298 297 295 293
251 253 252 249 249 250 254 259 265 271 275 278 281 287 295 301 306 310 309 309 311 313 313 309 305 300 296 294 292 292 294 296 296 297 296 297 297 296 296 295 294 293
247 251 252 252 250 247 249 253 256 262 267 271 274 278 284 289 295 299 301 303 304 307 310 311 308 303 297 292 288 287 289 290 291 292 292 293 293 292 291 290 289 288
241 246 251 254 253 250 249 249 250 254 259 264 267 271 276 280 284 288 292 295 298 301 306 309 310 307 303 297 292 290 289 288 288 289 290 290 289 288 287 286 285 285
238 241 246 250 253 253 253 252 251 252 255 259 262 266 270 273 275 278 282 287 291 295 300 304 307 308 306 303 300 297 294 291 290 290 290 289 287 285 283 283 283 283
235 237 240 244 250 253 255 256 256 255 255 257 259 261 264 267 270 272 275 280 286 291 295 298 301 303 304 305 304 303 299 295 293 292 291 289 287 285 283 282 282 281
236 235 236 239 244 250 255 257 257 257 256 256 258 259 260 262 264 267 270 275 282 286 289 291 294 297 299 301 303 304 303 299 295 292 290 289 288 287 285 283 281 280
241 239 239 240 241 243 248 252 254 255 255 256 257 257 258 258 260 263 267 271 276 280 282 284 287 289 291 295 299 302 303 301 296 292 290 290 290 288 286 283 281 280
246 242 240 241 243 243 243 246 249 251 253 254 253 252 252 253 255 259 263 267 271 274 277 280 282 284 286 289 293 297 299 299 297 295 294 294 292 291 288 286 283 282
252 249 242 238 241 244 246 247 248 250 252 255 257 258 256 255 254 255 259 263 267 269 272 275 278 281 284 287 290 292 294 295 296 297 297 297 295 292 290 288 286 285
259 259 255 248 243 244 248 250 251 252 253 256 259 264 266 265 261 258 258 260 262 264 267 271 275 279 283 285 286 288 289 290 292 295 296 295 294 292 291 289 288 287
260 261 262 259 253 249 250 251 252 253 255 256 257 259 263 267 269 268 266 265 266 267 268 269 272 276 279 280 282 285 285 286 289 291 292 292 292 292 291 291 290 289
260 259 260 260 258 256 254 254 254 255 255 256 256 257 259 264 269 273 275 275 275 274 274 273 273 275 276 276 278 281 283 284 286 288 290 291 292 292 292 292 291 290
256 257 257 258 258 257 256 256 256 256 256 256 257 257 258 261 266 271 275 277 278 277 276 276 274 273 274 274 276 278 280 282 284 286 288 289 291 292 292 292 291 290
258 257 255 255 254 254 254 254 255 256 257 258 259 261 262 263 266 270 273 276 277 277 277 277 274 271 270 272 275 277 279 280 281 283 285 287 289 291 292 291 291 290
262 261 259 257 256 254 254 254 254 255 256 257 259 261 263 265 267 269 272 274 276 277 277 277 274 268 265 267 272 276 277 277 278 281 284 286 289 290 291 290 290 290
264 263 262 261 259 258 257 256 256 257 258 258 259 261 263 265 267 269 270 271 273 275 275 274 272 267 262 263 268 272 273 274 277 280 283 286 288 289 290 290 290 290
264 264 263 262 261 261 260 259 259 259 260 261 261 262 264 265 267 268 269 270 271 273 274 272 269 265 260 260 264 268 270 273 277 280 283 285 286 288 289 289 289 289
263 264 264 263 262 262 261 261 261 261 261 262 262 263 264 265 267 268 270 271 272 274 273 269 266 264 260 260 264 268 271 275 278 280 282 284 286 288 289 289 289 289
264 264 264 264 263 263 263 262 262 262 262 262 263 264 265 266 267 269 270 270 269 269 269 267 266 266 264 264 266 269 272 276 279 281 283 286 288 289 289 289 289 289
268 266 264 263 263 263 264 264 264 264 263 263 264 265 265 266 267 266 263 261 260 263 266 265 265 266 265 266 268 271 274 277 280 283 286 288 289 290 289 289 288 288
271 269 267 264 263 262 263 264 265 265 265 264 263 264 265 263 260 256 253 252 254 258 261 261 262 263 263 265 269 271 275 278 281 284 286 287 288 288 288 288 288 288
273 272 270 267 264 262 262 263 263 264 265 262 259 261 260 252 247 246 245 245 247 250 254 257 259 261 264 267 270 273 276 278 281 283 285 286 287 287 288 288 289 289